Regional Weather Roundup
Issued by NWS

Home | Current Version | Previous Version | Text Only | Print | Product List | Glossary On
Versions: 1 2 3 4 5 6 7 8 9 10 11 12 13 14 15 16 17 18 19 20 21 22 23 24 25 26 27 28 29 30 31 32 33 34 35 36 37 38 39 40 41 42 43 44 45 46 47 48 49 50
000
ASUS43 KLMK 250110
RWRKY
KENTUCKY REGIONAL WEATHER ROUNDUP
NATIONAL WEATHER SERVICE LOUISVILLE KY
800 PM EST SAT FEB 24 2018

NOTE "FAIR" INDICATES FEW OR NO CLOUDS BELOW 12,000 FEET
WITH NO SIGNIFICANT WEATHER AND/OR OBSTRUCTIONS TO VISIBILITY.

KYZ001>023-026-027-061>063-070>075-250200-
WESTERN AND SOUTH CENTRAL KENTUCKY

CITY           SKY/WX    TMP DP  RH WIND       PRES   REMARKS
PADUCAH        RAIN      67  64  90 S8        29.69F FOG
HENDERSON      LGT RAIN  59  58  96 S10       29.73S
OWENSBORO      LGT RAIN  57  56  96 SE9       29.76R
HOPKINSVILLE   LGT RAIN  67  64  91 S8        29.77R
BOWLING GREEN  FAIR      71  63  75 S20G30    29.79F
GLASGOW        FAIR      69  61  75 S9G22     29.81F
$$

KYZ024-025-028>034-038-045-046-053-250200-
NORTH CENTRAL KENTUCKY

CITY           SKY/WX    TMP DP  RH WIND       PRES   REMARKS
LOUISVILLE/SDF LGT RAIN  55  54  96 E5        29.80F
LOUISVILLE/LOU LGT RAIN  55  55 100 E6        29.80F
FORT KNOX      LGT RAIN  55  55 100 E6        29.79F
$$

KYZ035>037-039>044-047>052-055>060-089>105-250200-
NORTHEAST KENTUCKY

CITY           SKY/WX    TMP DP  RH WIND       PRES   REMARKS
LEXINGTON      LGT RAIN  61  57  87 SE10      29.83F
COVINGTON      HVY RAIN  52  51  97 E8        29.85F FOG
FRANKFORT      RAIN      58  55  90 SE7       29.81F
$$

KYZ054-064>069-076>088-106>120-250200-
SOUTHEAST KENTUCKY

CITY           SKY/WX    TMP DP  RH WIND       PRES   REMARKS
JACKSON        MOCLDY    63  59  87 VRB3      29.92F
LONDON         CLOUDY    66  58  75 S9        29.92F
SOMERSET       FAIR      64  57  77 S7        29.91S
MIDDLESBORO    FAIR      65  60  83 S5        29.97S
MONTICELLO     FAIR      69  59  70 S14G25    29.91F
$$





USA.gov is the U.S. government's official web portal to all federal, state and local government web resources and services.